Weather in Repyevo

Russia / Novosibirsk Oblast     55°03′50″N   83°27′58″E
temp.,
°C
wind,
m/s
gust,
m/s
humid.,
%
clouds,
%
prec.,
mm/h
press.,
hPa
HPBL,
m
24 october, sun
sun2401:00+6sw101783100 3.1 1016900
04:00+6sw91680100 0.1 1016864
07:00+7sw91773100 0.4 1015873
10:00+7sw91777100 0.0 1016785
13:00+9sw9157484 0.1 10161077
16:00+10wsw8146991 0.1 10181526
19:00+8wsw6137598 0.1 1020507
22:00+9sw51280100 0.3 1020560
25 october, mon
mon2501:00+8ssw61382100 0.3 1020448
04:00+7ssw61380100 0.0 1018443
07:00+7ssw61581100 0.0 1017540
10:00+8ssw71772100 0.0 1015743
13:00+10sw91756100 0.0 1014982
16:00+10sw91650100 0.0 1014964
19:00+9wsw71454100 0.0 1016926
22:00+6w397493 0.0 1018202
26 october, tue
tue2601:00+4w228394 0.0 101915
04:00+4se1179100 0.0 101811
07:00+5se3780100 0.0 1017183
10:00+6sse51267100 0.0 1013357
13:00+8s61454100 0.0 1010568
16:00+10s71549100 0.0 1006906
19:00+9ssw71646100 0.0 1004626
22:00+9sw71651100 0.0 1004695
27 october, wed
wed2701:00+7w81282100 0.1 10071191
04:00+3wnw61177100 1.3 10131157
07:000wnw5976100 1.3 1018750
10:00−1w586884 0.0 1021595
13:00+1w57529 0.0 1022983
16:00+1w68455 0.0 10221227
19:00−1wsw37605 0.0 1024161
22:00−1wsw5116312 0.0 1025434
28 october, thu
thu2801:00−2wsw49676 0.0 1027312
04:00−3wsw36705 0.0 1029175
07:00−3sw237318 0.0 103051
10:00−1ssw367179 0.0 1031279
13:00+2sw56517 0.0 1030970
16:00+3ssw474863 0.0 1029949
19:00−1s3960100 0.0 1029195
22:000ssw51255100 0.0 1028380